Regional Weather Roundup
Issued by NWS

Home | Current Version | Previous Version | Text Only | Print | Product List | Glossary Off
Versions: 1 2 3 4 5 6 7 8 9 10 11 12 13 14 15 16 17 18 19 20 21 22 23 24 25 26 27 28 29 30 31 32 33 34 35 36 37 38 39 40 41 42 43 44 45 46 47 48 49 50

000
ASUS43 KIND 240109
RWRIN

WEATHER ROUNDUP FOR INDIANA
NATIONAL WEATHER SERVICE INDIANAPOLIS IN
900 PM EDT THU OCT 23 2014

NOTE: "FAIR" INDICATES FEW OR NO CLOUDS BELOW 12,000 FEET WITH NO
SIGNIFICANT WEATHER AND/OR OBSTRUCTIONS TO VISIBILITY.

* - STATION DOES NOT REPORT WEATHER SUCH AS PRECIPITATION OR FOG.

+ - STATION NOT QUALITY CONTROLLED BY THE NATIONAL WEATHER SERVICE.
    USE DATA WITH CAUTION...ESPECIALLY DEWPOINT AND RELATIVE
    HUMIDITY OBSERVATIONS.

INZ001>003-010>013-019-020-240200-
NORTHWEST INDIANA

CITY           SKY/WX    TMP DP  RH WIND       PRES   REMARKS
GARY /AIRPORT/ MOCLDY    54  41  62 S5        30.10R
KNOX *+        CLOUDY    46  39  78 SE5       30.10S
LA PORTE +     CLOUDY    50  42  73 CALM      30.11S
MICHIGAN CITY+ CLOUDY    50  37  62 CALM      30.10S
MONTICELLO +   CLOUDY    49  43  82 CALM      30.10F
RENSSELAER +   CLOUDY    52  43  71 S3        30.11S
VALPARAISO     CLOUDY    50  40  68 S3        30.10S

$$

LMZ046-743>745-240200-
SOUTHERN LAKE MICHIGAN

STATION/POSITION TIME  TEMP WIND        PRES
                       AIR  DIR/SP/G
                 (UTC) (F)  (DEG/KT/KT) (MB)
MICHIGAN CITY    0100   54  150/  6/  8   N/A

$$

INZ004-005-014>016-021>024-240200-
NORTH CENTRAL INDIANA

CITY           SKY/WX    TMP DP  RH WIND       PRES   REMARKS
ELKHART        CLOUDY    50  39  66 CALM      30.12S
GOSHEN         CLOUDY    49  40  71 S5        30.11S
LOGANSPORT +   CLOUDY    45  37  76 CALM      30.12S
PERU/GRISSOM   MOCLDY    48  45  88 SW1       30.11F
ROCHESTER +    CLOUDY    50  43  76 CALM      30.11F
SOUTH BEND     CLOUDY    52  40  63 S5        30.11F
WARSAW +       CLOUDY    45  41  87 CALM      30.11F

$$

INZ006>009-017-018-025>027-240200-
NORTHEAST INDIANA

CITY           SKY/WX    TMP DP  RH WIND       PRES   REMARKS
ANGOLA *+      CLEAR     43  39  87 E3        30.11F
AUBURN +       CLOUDY    45  37  76 CALM      30.12F
FORT WAYNE     CLOUDY    46  41  82 SW5       30.13F
HUNTINGTON +   CLOUDY    48  41  76 CALM      30.12S

$$

INZ028-029-035-036-043>045-051>053-240200-
WEST CENTRAL INDIANA

CITY           SKY/WX    TMP DP  RH WIND       PRES   REMARKS
GREENCASTLE +  CLOUDY    46  43  87 CALM      30.13S
LAFAYETTE      CLOUDY    48  43  82 CALM      30.11F
TERRE HAUTE    CLOUDY    48  44  86 CALM      30.13R

$$

INZ030>032-037>040-046>048-054>057-064-065-240200-
CENTRAL INDIANA

CITY           SKY/WX    TMP DP  RH WIND       PRES   REMARKS
CP ATTERBURY + CLOUDY    45  41  87 CALM      30.14R
COLUMBUS       CLEAR     48  41  76 CALM      30.14S
FRANKFORT +    CLOUDY    46  42  84 CALM      30.13F
INDIANAPOLIS   CLOUDY    53  39  59 SE5       30.11F
-EAGLE CREEK   CLOUDY    51  42  71 CALM      30.12S
KOKOMO *+      CLOUDY    46  39  76 S5        30.12F
MARION +       CLOUDY    46  39  77 CALM      30.13S
MT COMFORT *+  CLOUDY    45  39  81 S3        30.13S
SHELBYVILLE    CLOUDY    47  41  80 CALM      30.13S
ZIONSVILLE +   CLOUDY    46  39  79 S3        30.13S

$$

INZ033-034-041-042-049-050-058-059-240200-
EAST CENTRAL INDIANA

CITY           SKY/WX    TMP DP  RH WIND       PRES   REMARKS
MUNCIE         CLOUDY    51  40  65 S3        30.12F

$$

INZ060-061-067>069-081>083-085>088-240200-
SOUTHWEST INDIANA

CITY           SKY/WX    TMP DP  RH WIND       PRES   REMARKS
EVANSVILLE     CLOUDY    53  46  77 CALM      30.14R
HUNTINGBURG *+ CLOUDY    52  41  66 CALM      30.14F
WASHINGTON +   CLOUDY    51  45  82 CALM      30.13S

$$

INZ062-063-066-070>080-084-089>092-240200-
SOUTH CENTRAL AND SOUTHEAST INDIANA

CITY           SKY/WX    TMP DP  RH WIND       PRES   REMARKS
BEDFORD +      CLOUDY    50  41  71 CALM      30.13
BLOOMINGTON    CLOUDY    50  44  80 CALM      30.12F

$$




USA.gov is the U.S. government's official web portal to all federal, state and local government web resources and services.